Regional Weather Roundup
Issued by NWS

Home | Current Version | Previous Version | Text Only | Print | Product List | Glossary On
Versions: 1 2 3 4 5 6 7 8 9 10 11 12 13 14 15 16 17 18 19 20 21 22 23 24 25 26 27 28 29 30 31 32 33 34 35 36 37 38 39 40 41 42 43 44 45 46 47 48 49 50
000
ASUS43 KLOT 272200
RWRIL

ILLINOIS REGIONAL WEATHER ROUNDUP
NATIONAL WEATHER SERVICE CHICAGO/ROMEOVILLE IL
500 PM CDT WED AUG 27 2014

NOTE: "FAIR" INDICATES FEW OR NO CLOUDS BELOW 12,000 FEET WITH NO
SIGNIFICANT WEATHER AND/OR OBSTRUCTIONS TO VISIBILITY.

* THESE STATIONS ARE NOT UNDER NWS QUALITY CONTROL. THEY ALSO MAY NOT
  REPORT WEATHER SUCH AS PRECIPITATION OR FOG.

ILZ001-002-007-009-015-016-024-272300-
NORTHWEST ILLINOIS

CITY           SKY/WX    TMP DP  RH WIND       PRES   REMARKS
MOLINE         CLOUDY    77  64  64 NE8       30.09F
STERLING*      CLOUDY    77  63  61 NE8       30.12F
$$

ILZ003-004-008-010-011-017-018-272300-
NORTH CENTRAL ILLINOIS

CITY           SKY/WX    TMP DP  RH WIND       PRES   REMARKS
ROCKFORD       CLOUDY    77  59  53 NW3       30.14F
$$

ILZ005-006-012>014-019>023-272300-
NORTHEAST ILLINOIS

CITY           SKY/WX    TMP DP  RH WIND       PRES   REMARKS
CHICAGO-OHARE  CLOUDY    75  61  61 NE12      30.13S
CHICAGO-MIDWAY CLOUDY    75  64  68 E9        30.12S
AURORA         CLOUDY    78  64  61 N6        30.12F HX  80
WAUKEGAN       CLOUDY    70  62  76 NE7       30.14F
DUPAGE AIRPORT CLOUDY    78  64  61 NE12      30.11F HX  80
WHEELING       CLOUDY    73  63  70 NE7       30.15S
NORTHERLY ISL    N/A     71  63  75 NE10        N/A
$$

LMZ740>746-272300-
SOUTHERN LAKE MICHIGAN

STATION/POSITION SKY/WX   TEMP    WIND        PRES    VSBY  WAVE
                          AIR SEA DIR/SP/G                  HT/PER
                          (F)     (DEG/KT/KT) (MB)    (MI)  (FT/S)
SOUTHERN BUOY              68 71  350/  6/  8 1021.2F         1
WAUKEGAN HARBOR            70      60/  8/ 10   N/A
HARRISON CRIB              70      30/ 12/ 14   N/A
BURNHAM HARBOR             71      40/  8/ 11   N/A
CALUMET HARBOR             71      20/  8/ 11 1019.4S
MICHIGAN CITY              69     360/ 15/ 17   N/A
MICHIGAN CITY 6N           71 74   30/ 10/ 14   N/A           2/ 3
ST. JOSEPH                 70 74  360/ 12/ 14   N/A           2/ 3
$$

ILZ025>027-034>036-040-047-049-050-058-095>099-272300-
WEST-CENTRAL ILLINOIS

CITY           SKY/WX    TMP DP  RH WIND       PRES   REMARKS
QUINCY         PTSUNNY   82  71  69 NE7       30.07F HX  86
MACOMB*        PTSUNNY   81  70  70 NE7       30.10F HX  84
$$

ILZ028>032-037-038-041>044-048-051>054-059>061-272300-
CENTRAL ILLINOIS

CITY           SKY/WX    TMP DP  RH WIND       PRES   REMARKS
DECATUR        CLOUDY    82  74  76 N9        30.08F HX  88
PEORIA         CLOUDY    83  69  62 N6        30.09F HX  86
SPRINGFIELD    CLOUDY    81  75  82 N7        30.08F HX  87
TAYLORVILLE    NOT AVBL
$$

ILZ033-039-045-046-055>057-062-063-272300-
EAST-CENTRAL ILLINOIS

CITY           SKY/WX    TMP DP  RH WIND       PRES   REMARKS
CHAMPAIGN      PTSUNNY   83  73  72 N9        30.08S HX  89
MATTOON        PTSUNNY   84  74  71 N8        30.05F HX  91
$$

ILZ079-100>102-272300-
SOUTHWEST ILLINOIS

CITY           SKY/WX    TMP DP  RH WIND       PRES   REMARKS
ALTON          PTSUNNY   88  73  62 N15       30.03F THUNDER HX  96
BELLEVILLE     MOSUNNY   87  79  77 W1        30.02S HX 102
$$

ILZ064>066-069>071-074>076-080>082-084>086-088>090-092>094-272300-
SOUTH-CENTRAL ILLINOIS

CITY           SKY/WX    TMP DP  RH WIND       PRES   REMARKS
CARBONDALE     SUNNY     92  74  55 NE5       30.02F HX 101
MT. VERNON     PTSUNNY   84  75  74 NE7       30.05S THUNDER HX  92
SALEM*         MOSUNNY   90  77  64 N5        30.03F HX 103
$$

ILZ067-068-072-073-078-083-087-091-272300-
SOUTHEAST ILLINOIS

CITY           SKY/WX    TMP DP  RH WIND       PRES   REMARKS
LAWRENCEVILLE  SUNNY     90  73  57 N6        30.03F HX  98
$$

ABBREVIATIONS USED IN REMARKS
   TC - TEMPERATURE IN CELSIUS
  WCI - WIND CHILL INDEX
   HX - HEAT INDEX
  VSB - VISIBILITY
$$



USA.gov is the U.S. government's official web portal to all federal, state and local government web resources and services.